This is the latest recevied weather packets stored in our database for station/object K4CRS-13. If no packets are shown the sender has not sent any weather packets the latest 10 day(s).
| Time | Temp. | Humidity | Pressure | Rain* | Wind** | Luminosity | Snow |
|---|---|---|---|---|---|---|---|
| 1777471922 | 20° C | 99% | 1048.6 hPa | 0 mm | - | 87 W/m² | - |
| 1777471620 | 19.44° C | 99% | 1048.4 hPa | 0 mm | - | 131 W/m² | - |
| 1777471316 | 19.44° C | 99% | 1048.6 hPa | 0 mm | - | 203 W/m² | - |
| 1777471013 | 18.89° C | 99% | 1048.7 hPa | 0 mm | - | 82 W/m² | - |
| 1777470710 | 18.89° C | 99% | 1049.1 hPa | 0 mm | - | 38 W/m² | - |
| 1777470406 | 18.89° C | 99% | 1049.4 hPa | 0 mm | - | 12 W/m² | - |
| 1777470103 | 18.89° C | 99% | 1049.2 hPa | 0 mm | - | 24 W/m² | - |
| 1777469799 | 18.89° C | 99% | 1049.2 hPa | 0 mm | - | 42 W/m² | - |
| 1777469494 | 18.89° C | 99% | 1049.2 hPa | 0 mm | - | 36 W/m² | - |
| 1777469189 | 18.89° C | 99% | 1048.8 hPa | 0 mm | - | 29 W/m² | - |
| 1777468889 | 18.89° C | 99% | 1048.8 hPa | 0 mm | - | 42 W/m² | - |
| 1777468586 | 18.89° C | 99% | 1049.2 hPa | 0 mm | - | 37 W/m² | - |
| 1777468282 | 18.33° C | 99% | 1048.8 hPa | 0 mm | - | 19 W/m² | - |
| 1777467979 | 18.33° C | 99% | 1048.8 hPa | 0 mm | - | 10 W/m² | - |
| 1777467675 | 18.33° C | 99% | 1048.6 hPa | 0 mm | - | 11 W/m² | - |
| 1777467370 | 18.33° C | 99% | 1048.7 hPa | 0 mm | - | 8 W/m² | - |
| 1777467066 | 18.33° C | 99% | 1048.7 hPa | 0 mm | - | 15 W/m² | - |
| 1777466763 | 18.33° C | 99% | 1048.3 hPa | 0 mm | - | 18 W/m² | - |
| 1777466461 | 18.33° C | 99% | 1048.6 hPa | 0 mm | - | 26 W/m² | - |
| 1777466156 | 18.33° C | 99% | 1048.3 hPa | 0 mm | - | 18 W/m² | - |
| 1777465854 | 18.33° C | 99% | 1048.3 hPa | 0 mm | - | 12 W/m² | - |
| 1777465550 | 18.33° C | 99% | 1048.4 hPa | 0 mm | - | 15 W/m² | - |
| 1777465244 | 18.33° C | 99% | 1048.2 hPa | 0 mm | - | 17 W/m² | - |
| 1777464940 | 18.33° C | 99% | 1048.6 hPa | 0 mm | - | 23 W/m² | - |
| 1777464634 | 18.33° C | 99% | 1048.4 hPa | 0 mm | - | 10 W/m² | - |
* Rain latest hour (hover to see other rain measurements)
** Current wind speed in m/s (hover to see current wind gust speed)